This is the latest recevied weather packets stored in our database for station/object W2JGA. If no packets are shown the sender has not sent any weather packets the latest 10 day(s).
| Time | Temp. | Humidity | Pressure | Rain* | Wind** | Luminosity | Snow |
|---|---|---|---|---|---|---|---|
| 1778092412 | 23.33° C | 37% | 1018.7 hPa | 0 mm | - | 659 W/m² | - |
| 1778092110 | 22.78° C | 37% | 1019 hPa | 0 mm | - | 708 W/m² | - |
| 1778091807 | 22.78° C | 37% | 1018.7 hPa | 0 mm | - | 703 W/m² | - |
| 1778091505 | 22.22° C | 37% | 1018.7 hPa | 0 mm | - | 661 W/m² | - |
| 1778091202 | 22.22° C | 37% | 1019 hPa | 0 mm | - | 674 W/m² | - |
| 1778090899 | 22.22° C | 38% | 1019 hPa | 0 mm | - | 713 W/m² | - |
| 1778090595 | 22.22° C | 36% | 1019 hPa | 0 mm | - | 729 W/m² | - |
| 1778090292 | 21.67° C | 36% | 1019.4 hPa | 0 mm | - | 712 W/m² | - |
| 1778089989 | 22.22° C | 37% | 1019 hPa | 0 mm | - | 727 W/m² | - |
| 1778089686 | 22.22° C | 37% | 1019.4 hPa | 0 mm | - | 739 W/m² | - |
| 1778089383 | 21.67° C | 38% | 1019 hPa | 0 mm | - | 767 W/m² | - |
| 1778089081 | 22.22° C | 40% | 1019 hPa | 0 mm | - | 782 W/m² | - |
| 1778088777 | 21.67° C | 38% | 1019 hPa | 0 mm | - | 783 W/m² | - |
| 1778088474 | 21.11° C | 40% | 1019 hPa | 0 mm | - | 761 W/m² | - |
| 1778088171 | 21.11° C | 41% | 1019 hPa | 0 mm | - | 744 W/m² | - |
| 1778087868 | 21.11° C | 43% | 1019 hPa | 0 mm | - | 730 W/m² | - |
| 1778087565 | 21.67° C | 41% | 1018.7 hPa | 0 mm | - | 734 W/m² | - |
| 1778087263 | 21.11° C | 42% | 1019 hPa | 0 mm | - | 704 W/m² | - |
| 1778086959 | 21.67° C | 44% | 1019 hPa | 0 mm | - | 702 W/m² | - |
| 1778086658 | 21.67° C | 43% | 1019 hPa | 0 mm | - | 680 W/m² | - |
| 1778086355 | 21.11° C | 46% | 1019 hPa | 0 mm | - | 670 W/m² | - |
| 1778086052 | 21.11° C | 44% | 1019 hPa | 0 mm | - | 615 W/m² | - |
| 1778085749 | 20.56° C | 45% | 1019 hPa | 0 mm | - | 589 W/m² | - |
| 1778085445 | 20.56° C | 45% | 1019 hPa | 0 mm | - | 557 W/m² | - |
| 1778085135 | 20° C | 48% | 1019 hPa | 0 mm | - | 540 W/m² | - |
* Rain latest hour (hover to see other rain measurements)
** Current wind speed in m/s (hover to see current wind gust speed)